Regional Weather Roundup
Issued by NWS

Home | Current Version | Previous Version | Text Only | Print | Product List | Glossary On
Versions: 1 2 3 4 5 6 7 8 9 10 11 12 13 14 15 16 17 18 19 20 21 22 23 24 25 26 27 28 29 30 31 32 33 34 35 36 37 38 39 40 41 42 43 44 45 46 47 48 49 50
000
ASUS45 KREV 102310
RWRNV
NEVADA REGIONAL WEATHER ROUNDUP
NATIONAL WEATHER SERVICE RENO NV
400 PM PDT THU JUL 10 2014

NOTE: "FAIR" INDICATES FEW OR NO CLOUDS BELOW 12,000 FEET WITH NO
SIGNIFICANT WEATHER AND/OR OBSTRUCTIONS TO VISIBILITY.

NVZ001-003-004-110000-
WESTERN NEVADA

CITY           SKY/WX    TMP DP  RH WIND       PRES   REMARKS
RENO           PTSUNNY   92  44  19 S31G40    29.93F
CARSON CITY    FAIR      81  48  32 SE8G17    30.00S
SLIDE MTN        N/A     66  41  39 S5          N/A
FALLON         MOSUNNY   97  41  14 W9        29.88F
LOVELOCK       MOSUNNY   96  40  14 SW9       29.87F
HAWTHORNE      MOSUNNY   90  46  22 SW31G39   29.91F
$$

NVZ002-CAZ072-073-110000-
NORTHERN AND CENTRAL SIERRA

CITY           SKY/WX    TMP DP  RH WIND       PRES   REMARKS
S. LAKE TAHOE  PTSUNNY   77  45  32 S5        30.13F
TRUCKEE        PTSUNNY   79  45  29 SE17G26   30.08S
SQUAW VLY 8000 NOT AVBL
BLUE CANYON    SUNNY     77  43  29 SW8       30.10F
MAMMOTH LAKES  FAIR      73  41  31 SW18      30.17F
BRIDGEPORT     CLOUDY    69  49  48 E7        30.17R
$$

NVZ030-031-036-110000-
NORTHERN NEVADA

CITY           SKY/WX    TMP DP  RH WIND       PRES   REMARKS
ELKO           PTSUNNY   88  42  20 N10       29.98F
WINNEMUCCA     MOSUNNY   96  39  13 N8        29.91F
WENDOVER       PTSUNNY   93  46  20 SE7       29.90S
$$

NVZ035-037-110000-
CENTRAL NEVADA

CITY           SKY/WX    TMP DP  RH WIND       PRES   REMARKS
ELY            CLOUDY    73  47  39 NW24G33   30.16R
EUREKA           N/A     75  48  38 SE6       30.11F
$$

NVZ013-014-110000-
SOUTH CENTRAL NEVADA

CITY           SKY/WX    TMP DP  RH WIND       PRES   REMARKS
TONOPAH        PTSUNNY   90  36  14 SE12G20   30.00F
$$

NVZ017-020-022-110000-
SOUTHERN NEVADA

CITY           SKY/WX    TMP DP  RH WIND       PRES   REMARKS
LAS VEGAS      CLOUDY    89  62  40 E22       29.85S
N. LAS VEGAS   CLOUDY    89  59  36 SE13      29.88S
NELLIS AFB     CLOUDY    87  62  43 E18       29.86F
HENDERSON      CLOUDY    91  59  34 E8        29.90F
MERCURY        CLOUDY    93  37  14 SW15      29.91F
$$



USA.gov is the U.S. government's official web portal to all federal, state and local government web resources and services.